NKS714 KSAN-KPHX

Flight info

Callsign NKS714
Flight time 0h 58m
Altitude 39000
Route ZZOOO4 HOGGZ HYDRR1
Aircraft A319/M-SDE3FGHIRWY/LB1

Departure

Time 2026-05-07 06:12
Airport San Diego International Airport (KSAN)

Arrival

Time 2026-05-07 07:10
Airport Phoenix Sky Harbor International Airport (KPHX)
Time Latitude Longitude Altitude Speed Heading
2026-05-07 05:57 32.73340 -117.19791 26 ft 0 kts 278°
2026-05-07 06:04 32.73337 -117.19771 24 ft 4 kts 279°
2026-05-07 06:05 32.73331 -117.19741 27 ft 4 kts 301°
2026-05-07 06:05 32.73318 -117.19726 25 ft 2 kts 16°
2026-05-07 06:05 32.73317 -117.19727 23 ft 0 kts 17°
2026-05-07 06:07 32.73325 -117.19724 26 ft 2 kts 17°
2026-05-07 06:07 32.73348 -117.19715 24 ft 4 kts 17°
2026-05-07 06:08 32.73381 -117.19703 25 ft 5 kts 18°
2026-05-07 06:08 32.73414 -117.19663 26 ft 9 kts 69°
2026-05-07 06:08 32.73400 -117.19571 27 ft 14 kts 107°
2026-05-07 06:08 32.73369 -117.19450 27 ft 17 kts 106°
2026-05-07 06:09 32.73334 -117.19303 24 ft 21 kts 105°
2026-05-07 06:09 32.73292 -117.19127 25 ft 22 kts 106°
2026-05-07 06:09 32.73248 -117.18945 26 ft 24 kts 106°
2026-05-07 06:09 32.73201 -117.18752 37 ft 25 kts 105°
2026-05-07 06:10 32.73152 -117.18544 36 ft 28 kts 106°
2026-05-07 06:10 32.73094 -117.18311 33 ft 30 kts 106°
2026-05-07 06:10 32.73033 -117.18057 28 ft 33 kts 106°
2026-05-07 06:10 32.72976 -117.17828 27 ft 27 kts 107°
2026-05-07 06:11 32.72952 -117.17688 28 ft 12 kts 79°
2026-05-07 06:11 32.72980 -117.17596 32 ft 11 kts 64°
2026-05-07 06:11 32.73030 -117.17614 30 ft 13 kts 278°
2026-05-07 06:11 32.73048 -117.17703 29 ft 8 kts 287°
2026-05-07 06:12 32.73113 -117.17965 27 ft 63 kts 286°
2026-05-07 06:12 32.73289 -117.18692 31 ft 119 kts 286°
2026-05-07 06:12 32.73564 -117.19820 128 ft 155 kts 287°
2026-05-07 06:12 32.73848 -117.20996 870 ft 146 kts 286°
2026-05-07 06:13 32.74125 -117.22161 1481 ft 147 kts 287°
2026-05-07 06:13 32.74402 -117.23349 1969 ft 156 kts 287°
2026-05-07 06:13 32.74699 -117.24634 2453 ft 161 kts 288°
2026-05-07 06:13 32.75012 -117.25975 2879 ft 176 kts 288°
2026-05-07 06:14 32.75365 -117.27440 3286 ft 193 kts 288°
2026-05-07 06:14 32.75770 -117.29084 3574 ft 221 kts 288°
2026-05-07 06:14 32.76227 -117.30923 4151 ft 238 kts 288°
2026-05-07 06:14 32.76547 -117.32873 5003 ft 247 kts 269°
2026-05-07 06:15 32.75959 -117.34810 5783 ft 259 kts 231°
2026-05-07 06:15 32.74478 -117.36017 6589 ft 266 kts 194°
2026-05-07 06:15 32.72646 -117.36019 7361 ft 267 kts 158°
2026-05-07 06:15 32.71113 -117.34838 8181 ft 265 kts 131°
2026-05-07 06:16 32.69897 -117.33197 9082 ft 265 kts 124°
2026-05-07 06:16 32.68745 -117.31489 10026 ft 266 kts 124°
2026-05-07 06:16 32.67539 -117.29805 10796 ft 273 kts 127°
2026-05-07 06:16 32.66197 -117.28074 11111 ft 297 kts 129°
2026-05-07 06:17 32.64708 -117.26233 11370 ft 319 kts 126°
2026-05-07 06:17 32.63515 -117.23987 11871 ft 325 kts 110°
2026-05-07 06:17 32.62893 -117.21425 12572 ft 324 kts 95°
2026-05-07 06:17 32.62627 -117.18765 13362 ft 326 kts 93°
2026-05-07 06:18 32.62374 -117.16075 14108 ft 329 kts 93°
2026-05-07 06:18 32.62129 -117.13358 14762 ft 333 kts 92°
2026-05-07 06:18 32.62123 -117.10623 15384 ft 333 kts 80°
2026-05-07 06:18 32.62673 -117.07947 15873 ft 338 kts 67°
2026-05-07 06:19 32.63546 -117.05322 16397 ft 344 kts 66°
2026-05-07 06:19 32.64427 -117.02661 16988 ft 349 kts 66°
2026-05-07 06:19 32.65311 -116.99966 17616 ft 352 kts 66°
2026-05-07 06:19 32.66166 -116.97227 18236 ft 357 kts 71°
2026-05-07 06:20 32.66651 -116.94313 18788 ft 364 kts 82°
2026-05-07 06:20 32.66738 -116.91291 19330 ft 369 kts 85°
2026-05-07 06:20 32.66799 -116.88228 19896 ft 372 kts 85°
2026-05-07 06:20 32.66869 -116.85155 20481 ft 374 kts 85°
2026-05-07 06:21 32.66944 -116.82100 21049 ft 377 kts 84°
2026-05-07 06:21 32.67023 -116.78986 21583 ft 379 kts 84°
2026-05-07 06:21 32.67103 -116.75841 22119 ft 382 kts 84°
2026-05-07 06:21 32.67145 -116.72667 22644 ft 386 kts 86°
2026-05-07 06:22 32.67120 -116.69468 23143 ft 390 kts 87°
2026-05-07 06:22 32.66971 -116.62985 24053 ft 395 kts 88°
2026-05-07 06:22 32.66885 -116.59713 24482 ft 398 kts 88°
2026-05-07 06:23 32.66810 -116.56420 24929 ft 400 kts 87°
2026-05-07 06:23 32.66747 -116.53121 25378 ft 400 kts 87°
2026-05-07 06:23 32.66692 -116.49814 25801 ft 402 kts 87°
2026-05-07 06:23 32.66641 -116.46495 26212 ft 403 kts 86°
2026-05-07 06:24 32.66600 -116.43159 26625 ft 405 kts 85°
2026-05-07 06:24 32.66825 -116.39840 27017 ft 404 kts 79°
2026-05-07 06:24 32.67134 -116.36519 27414 ft 406 kts 80°
2026-05-07 06:24 32.67436 -116.33219 27815 ft 408 kts 80°
2026-05-07 06:25 32.67741 -116.29862 28194 ft 410 kts 80°
2026-05-07 06:25 32.68046 -116.26488 28591 ft 412 kts 80°
2026-05-07 06:25 32.68348 -116.23104 29010 ft 413 kts 80°
2026-05-07 06:25 32.68650 -116.19717 29428 ft 413 kts 80°
2026-05-07 06:26 32.68954 -116.16313 29808 ft 415 kts 80°
2026-05-07 06:26 32.69260 -116.12898 30148 ft 417 kts 80°
2026-05-07 06:26 32.69569 -116.09463 30447 ft 419 kts 80°
2026-05-07 06:26 32.69876 -116.06014 30751 ft 421 kts 80°
2026-05-07 06:27 32.70182 -116.02543 31030 ft 423 kts 80°
2026-05-07 06:27 32.70492 -115.99065 31297 ft 425 kts 79°
2026-05-07 06:27 32.70812 -115.95579 31687 ft 424 kts 79°
2026-05-07 06:27 32.71137 -115.92111 32127 ft 422 kts 79°
2026-05-07 06:28 32.71462 -115.88662 32545 ft 420 kts 79°
2026-05-07 06:28 32.71786 -115.85216 32957 ft 419 kts 79°
2026-05-07 06:28 32.72106 -115.81785 33363 ft 418 kts 79°
2026-05-07 06:28 32.72420 -115.78357 33772 ft 417 kts 79°
2026-05-07 06:29 32.72725 -115.74965 34148 ft 416 kts 79°
2026-05-07 06:29 32.73033 -115.71527 34488 ft 416 kts 79°
2026-05-07 06:29 32.73342 -115.68115 34828 ft 416 kts 79°
2026-05-07 06:29 32.73652 -115.64697 35126 ft 417 kts 79°
2026-05-07 06:30 32.73958 -115.61272 35429 ft 417 kts 79°
2026-05-07 06:30 32.74262 -115.57843 35694 ft 418 kts 79°
2026-05-07 06:30 32.74565 -115.54411 35972 ft 418 kts 79°
2026-05-07 06:30 32.74867 -115.50973 36242 ft 419 kts 80°
2026-05-07 06:31 32.75086 -115.47512 36507 ft 421 kts 82°
2026-05-07 06:31 32.75204 -115.44031 36770 ft 423 kts 84°
2026-05-07 06:31 32.75260 -115.40542 37019 ft 424 kts 85°
2026-05-07 06:31 32.75292 -115.37036 37254 ft 424 kts 85°
2026-05-07 06:32 32.75327 -115.33536 37508 ft 424 kts 85°
2026-05-07 06:32 32.75380 -115.30031 37830 ft 424 kts 85°
2026-05-07 06:32 32.75449 -115.26530 38098 ft 424 kts 85°
2026-05-07 06:32 32.75531 -115.23028 38336 ft 424 kts 85°
2026-05-07 06:33 32.75616 -115.19527 38556 ft 425 kts 85°
2026-05-07 06:33 32.75700 -115.16019 38747 ft 425 kts 85°
2026-05-07 06:33 32.75781 -115.12508 38914 ft 426 kts 85°
2026-05-07 06:33 32.75860 -115.08985 38988 ft 427 kts 85°
2026-05-07 06:34 32.76011 -115.01926 38999 ft 428 kts 85°
2026-05-07 06:34 32.76153 -114.94842 38995 ft 430 kts 86°
2026-05-07 06:35 32.76295 -114.87744 38995 ft 430 kts 86°
2026-05-07 06:35 32.76436 -114.80641 38990 ft 430 kts 86°
2026-05-07 06:36 32.76570 -114.73534 39004 ft 431 kts 86°
2026-05-07 06:36 32.76699 -114.66414 39011 ft 431 kts 86°
2026-05-07 06:37 32.76821 -114.59292 39016 ft 431 kts 86°
2026-05-07 06:37 32.76935 -114.52169 39017 ft 431 kts 86°
2026-05-07 06:38 32.77035 -114.45043 39024 ft 432 kts 86°
2026-05-07 06:38 32.77131 -114.37911 39028 ft 432 kts 86°
2026-05-07 06:39 32.77216 -114.30763 38939 ft 434 kts 88°
2026-05-07 06:39 32.77294 -114.23561 38519 ft 440 kts 87°
2026-05-07 06:40 32.77333 -114.19887 37714 ft 446 kts 87°
2026-05-07 06:40 32.77374 -114.16213 37166 ft 444 kts 86°
2026-05-07 06:40 32.77416 -114.12544 36535 ft 444 kts 86°
2026-05-07 06:40 32.77458 -114.08881 36029 ft 441 kts 86°
2026-05-07 06:41 32.77658 -114.05278 35460 ft 435 kts 79°
2026-05-07 06:41 32.78064 -114.01731 34846 ft 433 kts 79°
2026-05-07 06:41 32.78330 -113.99390 34473 ft 431 kts 79°
2026-05-07 06:41 32.78723 -113.95875 33905 ft 427 kts 79°
2026-05-07 06:42 32.79105 -113.92385 33193 ft 425 kts 79°
2026-05-07 06:42 32.79479 -113.88916 32256 ft 423 kts 79°
2026-05-07 06:42 32.79972 -113.84333 31259 ft 420 kts 79°
2026-05-07 06:42 32.80343 -113.80894 30510 ft 418 kts 79°
2026-05-07 06:43 32.80593 -113.78586 30055 ft 415 kts 79°
2026-05-07 06:43 32.80958 -113.75201 29241 ft 411 kts 79°
2026-05-07 06:43 32.81504 -113.71905 28669 ft 400 kts 71°
2026-05-07 06:43 32.82478 -113.68864 28174 ft 389 kts 63°
2026-05-07 06:44 32.83823 -113.66126 27733 ft 379 kts 54°
2026-05-07 06:44 32.85473 -113.63706 27197 ft 374 kts 49°
2026-05-07 06:44 32.87185 -113.61414 26725 ft 367 kts 49°
2026-05-07 06:44 32.88867 -113.59155 26259 ft 363 kts 49°
2026-05-07 06:45 32.90532 -113.56917 25804 ft 359 kts 49°
2026-05-07 06:45 32.92179 -113.54702 25367 ft 356 kts 49°
2026-05-07 06:45 32.93810 -113.52504 24931 ft 354 kts 49°
2026-05-07 06:45 32.95430 -113.50314 24511 ft 351 kts 49°
2026-05-07 06:46 32.97038 -113.48140 24107 ft 348 kts 48°
2026-05-07 06:46 32.98630 -113.45988 23705 ft 345 kts 48°
2026-05-07 06:46 33.00212 -113.43849 23274 ft 342 kts 48°
2026-05-07 06:46 33.01772 -113.41737 22883 ft 337 kts 49°
2026-05-07 06:47 33.03310 -113.39653 22496 ft 334 kts 49°
2026-05-07 06:47 33.04840 -113.37580 22108 ft 332 kts 49°
2026-05-07 06:47 33.06374 -113.35506 21820 ft 340 kts 49°
2026-05-07 06:47 33.07976 -113.33340 21620 ft 353 kts 49°
2026-05-07 06:48 33.09605 -113.31139 21384 ft 355 kts 49°
2026-05-07 06:48 33.11245 -113.28926 21151 ft 356 kts 49°
2026-05-07 06:48 33.12860 -113.26746 20927 ft 355 kts 49°
2026-05-07 06:48 33.14492 -113.24538 20688 ft 355 kts 49°
2026-05-07 06:49 33.16123 -113.22334 20459 ft 354 kts 49°
2026-05-07 06:49 33.17752 -113.20132 20231 ft 353 kts 50°
2026-05-07 06:49 33.19374 -113.17935 19998 ft 352 kts 50°
2026-05-07 06:49 33.20989 -113.15739 19769 ft 352 kts 50°
2026-05-07 06:50 33.22601 -113.13545 19546 ft 351 kts 50°
2026-05-07 06:50 33.24211 -113.11350 19311 ft 351 kts 50°
2026-05-07 06:50 33.25765 -113.09134 19101 ft 343 kts 56°
2026-05-07 06:50 33.26884 -113.06672 18845 ft 333 kts 70°
2026-05-07 06:51 33.27455 -113.04019 18712 ft 330 kts 82°
2026-05-07 06:51 33.27575 -113.01289 18516 ft 329 kts 88°
2026-05-07 06:51 33.27640 -112.98558 18279 ft 328 kts 88°
2026-05-07 06:51 33.27709 -112.95839 18021 ft 327 kts 88°
2026-05-07 06:52 33.27779 -112.93127 17788 ft 326 kts 88°
2026-05-07 06:52 33.27847 -112.90427 17556 ft 325 kts 88°
2026-05-07 06:52 33.27914 -112.87732 17323 ft 324 kts 88°
2026-05-07 06:52 33.27980 -112.85061 17118 ft 317 kts 88°
2026-05-07 06:53 33.28041 -112.82470 16912 ft 308 kts 87°
2026-05-07 06:53 33.28175 -112.79943 16702 ft 302 kts 84°
2026-05-07 06:53 33.28395 -112.77444 16449 ft 301 kts 83°
2026-05-07 06:53 33.28650 -112.74963 16174 ft 301 kts 82°
2026-05-07 06:54 33.28915 -112.72486 15882 ft 300 kts 82°
2026-05-07 06:54 33.29173 -112.70021 15589 ft 298 kts 82°
2026-05-07 06:54 33.29419 -112.67563 15304 ft 297 kts 82°
2026-05-07 06:54 33.29658 -112.65111 15016 ft 296 kts 83°
2026-05-07 06:55 33.29890 -112.62670 14731 ft 295 kts 83°
2026-05-07 06:55 33.30116 -112.60240 14444 ft 294 kts 83°
2026-05-07 06:55 33.30340 -112.57822 14157 ft 292 kts 83°
2026-05-07 06:55 33.30564 -112.55410 13871 ft 291 kts 83°
2026-05-07 06:56 33.30787 -112.53010 13561 ft 290 kts 83°
2026-05-07 06:56 33.31009 -112.50616 13276 ft 289 kts 83°
2026-05-07 06:56 33.31231 -112.48232 12963 ft 288 kts 83°
2026-05-07 06:56 33.31449 -112.45856 12685 ft 287 kts 83°
2026-05-07 06:57 33.31665 -112.43484 12397 ft 287 kts 83°
2026-05-07 06:57 33.31878 -112.41117 12114 ft 286 kts 83°
2026-05-07 06:57 33.32090 -112.38753 11842 ft 285 kts 83°
2026-05-07 06:57 33.32303 -112.36398 11567 ft 285 kts 83°
2026-05-07 06:58 33.32517 -112.34053 11293 ft 283 kts 83°
2026-05-07 06:58 33.32732 -112.31712 11012 ft 282 kts 83°
2026-05-07 06:58 33.32944 -112.29382 10739 ft 281 kts 83°
2026-05-07 06:58 33.33155 -112.27063 10469 ft 280 kts 83°
2026-05-07 06:59 33.33365 -112.24754 10198 ft 279 kts 83°
2026-05-07 06:59 33.33576 -112.22447 9928 ft 279 kts 83°
2026-05-07 06:59 33.33785 -112.20149 9639 ft 278 kts 83°
2026-05-07 06:59 33.33991 -112.17856 9415 ft 275 kts 83°
2026-05-07 07:00 33.34189 -112.15628 9324 ft 264 kts 83°
2026-05-07 07:00 33.34379 -112.13482 9220 ft 255 kts 83°
2026-05-07 07:00 33.34563 -112.11415 9113 ft 246 kts 83°
2026-05-07 07:00 33.34738 -112.09395 9011 ft 244 kts 85°
2026-05-07 07:01 33.34734 -112.07362 8778 ft 245 kts 90°
2026-05-07 07:01 33.34708 -112.05330 8501 ft 243 kts 90°
2026-05-07 07:01 33.34682 -112.03335 8245 ft 237 kts 90°
2026-05-07 07:01 33.34656 -112.01376 7996 ft 234 kts 90°
2026-05-07 07:02 33.34630 -111.99434 7751 ft 234 kts 90°
2026-05-07 07:02 33.34607 -111.97495 7505 ft 234 kts 90°
2026-05-07 07:02 33.34582 -111.95557 7174 ft 233 kts 90°
2026-05-07 07:02 33.34558 -111.93617 6797 ft 234 kts 89°
2026-05-07 07:03 33.34565 -111.91672 6458 ft 234 kts 87°
2026-05-07 07:03 33.34611 -111.89729 6080 ft 234 kts 86°
2026-05-07 07:03 33.34664 -111.87787 5700 ft 234 kts 86°
2026-05-07 07:03 33.34718 -111.85838 5323 ft 235 kts 86°
2026-05-07 07:04 33.34766 -111.83912 4952 ft 235 kts 86°
2026-05-07 07:04 33.34811 -111.81957 4580 ft 235 kts 86°
2026-05-07 07:04 33.34876 -111.80010 4239 ft 233 kts 80°
2026-05-07 07:04 33.35477 -111.78325 4107 ft 214 kts 46°
2026-05-07 07:05 33.36675 -111.77456 4043 ft 195 kts 10°
2026-05-07 07:05 33.38014 -111.77317 4045 ft 191 kts
2026-05-07 07:05 33.39337 -111.77304 4033 ft 189 kts 357°
2026-05-07 07:05 33.40611 -111.77656 4037 ft 189 kts 336°
2026-05-07 07:06 33.41703 -111.78515 4039 ft 190 kts 317°
2026-05-07 07:06 33.42481 -111.79777 4041 ft 189 kts 297°
2026-05-07 07:06 33.42839 -111.81270 4019 ft 188 kts 278°
2026-05-07 07:06 33.42861 -111.82831 3863 ft 188 kts 272°
2026-05-07 07:07 33.42862 -111.84390 3652 ft 187 kts 272°
2026-05-07 07:07 33.42863 -111.85890 3425 ft 173 kts 272°
2026-05-07 07:07 33.42866 -111.87296 3188 ft 167 kts 272°
2026-05-07 07:07 33.42865 -111.88672 2982 ft 164 kts 271°
2026-05-07 07:08 33.42862 -111.90036 2786 ft 161 kts 272°
2026-05-07 07:08 33.42860 -111.91290 2602 ft 143 kts 271°
2026-05-07 07:08 33.42862 -111.92440 2409 ft 135 kts 272°
2026-05-07 07:08 33.42866 -111.93558 2219 ft 133 kts 271°
2026-05-07 07:09 33.42870 -111.94662 2073 ft 134 kts 271°
2026-05-07 07:09 33.42867 -111.95771 1935 ft 133 kts 271°
2026-05-07 07:09 33.42873 -111.96881 1758 ft 133 kts 271°
2026-05-07 07:09 33.42877 -111.97986 1580 ft 133 kts 271°
2026-05-07 07:10 33.42881 -111.99089 1387 ft 132 kts 271°
2026-05-07 07:10 33.42882 -112.00181 1211 ft 131 kts 270°
2026-05-07 07:10 33.42885 -112.01189 1158 ft 100 kts 270°
2026-05-07 07:10 33.42884 -112.01696 1154 ft 41 kts 269°
2026-05-07 07:11 33.42886 -112.02030 1142 ft 23 kts 277°
2026-05-07 07:11 33.42949 -112.02167 1147 ft 12 kts 336°
2026-05-07 07:11 33.42997 -112.02109 1154 ft 12 kts 84°
2026-05-07 07:11 33.42997 -112.02001 1158 ft 14 kts 90°
2026-05-07 07:12 33.42997 -112.01882 1157 ft 15 kts 89°
2026-05-07 07:12 33.42998 -112.01749 1156 ft 17 kts 89°
2026-05-07 07:12 33.43020 -112.01609 1158 ft 18 kts 54°
2026-05-07 07:12 33.43142 -112.01571 1156 ft 20 kts 358°
2026-05-07 07:13 33.43217 -112.01509 1157 ft 15 kts 86°
2026-05-07 07:13 33.43216 -112.01372 1156 ft 17 kts 91°
2026-05-07 07:13 33.43218 -112.01232 1158 ft 15 kts 75°
2026-05-07 07:13 33.43289 -112.01146 1156 ft 16 kts 77°
2026-05-07 07:14 33.43289 -112.01009 1156 ft 17 kts 89°
2026-05-07 07:14 33.43306 -112.00898 1158 ft 11 kts 41°
2026-05-07 07:14 33.43372 -112.00889 1156 ft 4 kts
2026-05-07 07:14 33.43393 -112.00887 1158 ft 1 kts
2026-05-07 07:15 33.43396 -112.00887 1158 ft 0 kts